Radiation Dose at Monitoring Post of Fukushima Daini Nuclear Power Station
Date,Time,MP-1(microSv/h),MP-2(microSv/h),MP-3(microSv/h),MP-4(microSv/h),MP-5(microSv/h),MP-6(microSv/h),MP-7(microSv/h),Wind Direction,Wind Velocity(m/s),Rain
2016/08/02,00:00,0.427,0.253,0.447,0.408,0.373,0.208,0.177,north-northwest,1.0,No
2016/08/02,00:10,0.422,0.252,0.443,0.406,0.379,0.207,0.178,north,1.9,No
2016/08/02,00:20,0.424,0.251,0.440,0.403,0.377,0.206,0.176,north,2.8,No
2016/08/02,00:30,0.429,0.251,0.445,0.405,0.373,0.207,0.176,north-northwest,2.3,No
2016/08/02,00:40,0.425,0.253,0.446,0.407,0.373,0.206,0.178,north-northwest,2.2,No
2016/08/02,00:50,0.422,0.251,0.444,0.405,0.377,0.207,0.177,north-northwest,2.2,No
2016/08/02,01:00,0.428,0.250,0.441,0.402,0.375,0.205,0.177,north-northwest,1.9,No
2016/08/02,01:10,0.427,0.252,0.446,0.405,0.372,0.207,0.176,northwest,1.0,No
2016/08/02,01:20,0.424,0.254,0.448,0.407,0.376,0.208,0.178,northwest,0.9,No
2016/08/02,01:30,0.423,0.252,0.445,0.407,0.380,0.207,0.177,northwest,1.8,No
2016/08/02,01:40,0.428,0.252,0.442,0.403,0.375,0.207,0.176,north-northwest,1.6,No
2016/08/02,01:50,0.426,0.254,0.448,0.410,0.373,0.206,0.178,north-northwest,2.1,No
2016/08/02,02:00,0.423,0.252,0.447,0.408,0.377,0.207,0.179,north-northwest,2.7,No
2016/08/02,02:10,0.426,0.252,0.443,0.403,0.376,0.207,0.177,north-northwest,1.6,No
2016/08/02,02:20,0.428,0.254,0.443,0.405,0.374,0.207,0.178,north-northwest,2.2,No
2016/08/02,02:30,0.426,0.253,0.449,0.409,0.375,0.207,0.178,north-northwest,1.3,No
2016/08/02,02:40,0.424,0.252,0.446,0.407,0.379,0.207,0.178,north,2.3,No
2016/08/02,02:50,0.430,0.254,0.443,0.406,0.374,0.207,0.178,north,2.5,No
2016/08/02,03:00,0.429,0.254,0.447,0.408,0.376,0.208,0.179,north-northeast,2.8,No
2016/08/02,03:10,0.422,0.253,0.447,0.407,0.380,0.206,0.178,north,1.8,No
2016/08/02,03:20,0.429,0.253,0.444,0.403,0.378,0.208,0.179,north,1.3,No
2016/08/02,03:30,0.429,0.253,0.445,0.409,0.375,0.208,0.180,north,2.4,No
2016/08/02,03:40,0.425,0.252,0.448,0.408,0.378,0.206,0.178,north,2.9,No
2016/08/02,03:50,0.427,0.256,0.443,0.404,0.377,0.208,0.178,north,3.4,No
2016/08/02,04:00,0.430,0.254,0.443,0.409,0.374,0.208,0.180,north,3.4,No
2016/08/02,04:10,0.426,0.253,0.449,0.408,0.380,0.207,0.178,north-northeast,3.9,No
2016/08/02,04:20,0.426,0.255,0.447,0.404,0.378,0.207,0.179,north,4.4,No
2016/08/02,04:30,0.431,0.255,0.443,0.407,0.375,0.209,0.179,north,4.1,No
2016/08/02,04:40,0.428,0.252,0.448,0.410,0.378,0.208,0.178,north,3.7,No
2016/08/02,04:50,0.424,0.255,0.444,0.405,0.377,0.208,0.177,north,2.8,No
2016/08/02,05:00,0.429,0.255,0.444,0.406,0.373,0.208,0.180,north,2.0,No
2016/08/02,05:10,0.429,0.253,0.446,0.410,0.378,0.208,0.179,north,1.3,No
2016/08/02,05:20,0.425,0.256,0.449,0.406,0.376,0.208,0.177,-,CALM,No
2016/08/02,05:30,0.429,0.256,0.444,0.405,0.374,0.209,0.180,-,CALM,No
2016/08/02,05:40,0.431,0.255,0.446,0.411,0.377,0.208,0.181,northeast,0.7,No
2016/08/02,05:50,0.425,0.254,0.450,0.406,0.381,0.208,0.178,northeast,0.6,No
2016/08/02,06:00,0.424,0.255,0.446,0.405,0.376,0.209,0.179,north-northeast,1.3,No
2016/08/02,06:10,0.430,0.253,0.443,0.409,0.374,0.208,0.180,north,1.4,No
2016/08/02,06:20,0.429,0.251,0.448,0.409,0.377,0.208,0.179,north,2.8,No
2016/08/02,06:30,0.426,0.254,0.449,0.409,0.380,0.209,0.179,north,2.8,No
2016/08/02,06:40,0.425,0.256,0.446,0.406,0.378,0.208,0.178,north,1.7,No
2016/08/02,06:50,0.431,0.254,0.443,0.409,0.374,0.209,0.180,north-northwest,1.7,No
2016/08/02,07:00,0.428,0.253,0.448,0.409,0.376,0.208,0.179,north-northwest,1.3,No
2016/08/02,07:10,0.423,0.252,0.449,0.406,0.379,0.208,0.178,north,1.9,No
2016/08/02,07:20,0.425,0.255,0.446,0.403,0.378,0.209,0.177,-,CALM,No
2016/08/02,07:30,0.430,0.252,0.444,0.410,0.375,0.207,0.179,west-southwest,0.7,No
2016/08/02,07:40,0.426,0.251,0.442,0.409,0.374,0.207,0.179,north,1.0,No
2016/08/02,07:50,0.424,0.251,0.439,0.407,0.372,0.206,0.178,northeast,1.3,No
2016/08/02,08:00,0.424,0.250,0.443,0.406,0.372,0.207,0.179,-,CALM,No
2016/08/02,08:10,0.422,0.251,0.442,0.404,0.373,0.207,0.177,east,0.8,No
2016/08/02,08:20,0.424,0.252,0.440,0.405,0.372,0.208,0.178,east-southeast,2.2,No
2016/08/02,08:30,0.430,0.249,0.448,0.405,0.373,0.207,0.178,northeast,1.7,No
2016/08/02,08:40,0.427,0.251,0.447,0.404,0.372,0.208,0.177,east-northeast,1.8,No
2016/08/02,08:50,0.427,0.251,0.447,0.405,0.373,0.207,0.178,northeast,1.4,No
2016/08/02,09:00,0.424,0.251,0.443,0.405,0.374,0.208,0.177,east,1.0,No
2016/08/02,09:10,0.425,0.252,0.441,0.405,0.375,0.207,0.178,east-southeast,1.7,No
2016/08/02,09:20,0.425,0.252,0.442,0.407,0.375,0.206,0.177,east-northeast,1.3,No
2016/08/02,09:30,0.425,0.252,0.442,0.405,0.375,0.207,0.177,northeast,2.7,No
2016/08/02,09:40,0.424,0.252,0.440,0.407,0.374,0.206,0.176,east-northeast,2.8,No
2016/08/02,09:50,0.424,0.251,0.448,0.405,0.374,0.205,0.177,northeast,1.9,No
2016/08/02,10:00,0.423,0.251,0.449,0.405,0.375,0.207,0.178,northeast,2.7,No
2016/08/02,10:10,0.424,0.251,0.447,0.404,0.374,0.206,0.178,northeast,3.1,No
2016/08/02,10:20,0.425,0.251,0.445,0.405,0.374,0.207,0.177,northeast,2.4,No
2016/08/02,10:30,0.424,0.251,0.444,0.406,0.376,0.207,0.178,northeast,3.0,No
2016/08/02,10:40,0.426,0.251,0.446,0.407,0.376,0.208,0.179,east-northeast,2.7,No
2016/08/02,10:50,0.425,0.252,0.446,0.408,0.376,0.208,0.179,east,3.0,No
2016/08/02,11:00,0.427,0.253,0.447,0.409,0.377,0.208,0.179,east-northeast,3.0,No
2016/08/02,11:10,0.427,0.253,0.444,0.408,0.375,0.206,0.179,east,2.9,No
2016/08/02,11:20,0.427,0.252,0.444,0.407,0.375,0.207,0.180,east-southeast,2.6,No
2016/08/02,11:30,0.427,0.252,0.443,0.404,0.374,0.207,0.178,east-southeast,2.8,No
2016/08/02,11:40,0.426,0.252,0.443,0.404,0.373,0.206,0.177,east-southeast,2.5,No
2016/08/02,11:50,0.425,0.253,0.443,0.405,0.373,0.207,0.178,east-southeast,2.3,No
2016/08/02,12:00,-,-,-,-,-,-,-,-,-,-
2016/08/02,12:10,0.425,0.254,0.445,0.406,0.374,0.206,0.178,southeast,1.8,No
2016/08/02,12:20,0.426,0.256,0.445,0.407,0.377,0.208,0.179,south-southeast,1.8,No
2016/08/02,12:30,0.426,0.254,0.447,0.407,0.377,0.207,0.178,southeast,2.1,No
2016/08/02,12:40,0.427,0.253,0.447,0.406,0.376,0.207,0.178,southeast,2.4,No
2016/08/02,12:50,0.428,0.254,0.446,0.406,0.375,0.208,0.178,south-southeast,1.9,No
2016/08/02,13:00,0.429,0.253,0.446,0.408,0.375,0.207,0.178,south-southeast,2.3,No
2016/08/02,13:10,0.429,0.254,0.446,0.411,0.377,0.206,0.180,southeast,2.9,No
2016/08/02,13:20,0.425,0.255,0.448,0.411,0.376,0.208,0.178,south-southeast,2.8,No
2016/08/02,13:30,0.428,0.254,0.446,0.411,0.378,0.208,0.179,south-southeast,3.1,No
2016/08/02,13:40,0.426,0.252,0.450,0.409,0.376,0.208,0.179,south-southeast,3.1,No
2016/08/02,13:50,0.426,0.252,0.449,0.411,0.377,0.208,0.180,south-southeast,3.6,No
2016/08/02,14:00,0.426,0.253,0.447,0.409,0.376,0.207,0.178,south-southeast,3.4,No
2016/08/02,14:10,0.427,0.252,0.447,0.406,0.375,0.208,0.179,southeast,2.9,No
2016/08/02,14:20,0.425,0.252,0.447,0.407,0.375,0.207,0.177,southeast,2.8,No
2016/08/02,14:30,0.427,0.251,0.446,0.407,0.377,0.207,0.178,southeast,2.9,No
2016/08/02,14:40,0.429,0.253,0.445,0.406,0.376,0.207,0.178,south-southeast,1.8,No
2016/08/02,14:50,0.428,0.252,0.446,0.406,0.375,0.206,0.179,southeast,1.7,No
2016/08/02,15:00,0.427,0.252,0.446,0.406,0.377,0.207,0.178,southeast,2.0,No
2016/08/02,15:10,0.425,0.252,0.447,0.405,0.375,0.208,0.177,east-southeast,2.1,No
2016/08/02,15:20,0.427,0.251,0.444,0.405,0.376,0.207,0.178,southeast,1.4,No
2016/08/02,15:30,0.425,0.251,0.445,0.404,0.374,0.207,0.177,southeast,1.6,No
2016/08/02,15:40,0.425,0.251,0.444,0.405,0.376,0.207,0.177,southeast,1.3,No
2016/08/02,15:50,0.424,0.251,0.443,0.403,0.376,0.209,0.177,east-southeast,1.6,No
2016/08/02,16:00,0.425,0.252,0.447,0.404,0.375,0.208,0.177,southeast,2.1,No
2016/08/02,16:10,0.424,0.252,0.446,0.403,0.374,0.210,0.177,southeast,1.7,No
2016/08/02,16:20,0.426,0.252,0.443,0.407,0.376,0.207,0.177,east,1.3,No
2016/08/02,16:30,0.425,0.252,0.445,0.410,0.374,0.207,0.176,east,1.6,No
2016/08/02,16:40,0.425,0.251,0.441,0.410,0.373,0.207,0.176,east,1.8,No
2016/08/02,16:50,0.431,0.253,0.444,0.407,0.372,0.206,0.178,east-northeast,1.6,No
2016/08/02,17:00,0.431,0.253,0.450,0.406,0.372,0.207,0.179,northeast,2.1,No
2016/08/02,17:10,0.427,0.254,0.450,0.405,0.371,0.207,0.179,east,1.8,No
2016/08/02,17:20,0.427,0.252,0.448,0.411,0.373,0.206,0.177,east-northeast,1.6,No
2016/08/02,17:30,0.424,0.252,0.445,0.409,0.372,0.208,0.176,east-southeast,1.4,No
2016/08/02,17:40,0.431,0.254,0.443,0.408,0.376,0.208,0.179,east,1.2,No
2016/08/02,17:50,0.430,0.253,0.445,0.406,0.379,0.207,0.180,east-northeast,1.3,No
2016/08/02,18:00,0.428,0.252,0.450,0.404,0.376,0.207,0.177,east-northeast,0.7,No
2016/08/02,18:10,0.425,0.251,0.450,0.409,0.375,0.207,0.177,east,0.8,Yes
2016/08/02,18:20,0.423,0.251,0.443,0.408,0.370,0.207,0.177,east-southeast,1.3,Yes
2016/08/02,18:30,0.429,0.252,0.438,0.402,0.368,0.207,0.177,east-northeast,1.0,Yes
2016/08/02,18:40,0.429,0.251,0.440,0.398,0.374,0.206,0.176,south-southwest,1.1,Yes
2016/08/02,18:50,0.425,0.250,0.443,0.397,0.374,0.205,0.176,southeast,0.7,No
2016/08/02,19:00,0.424,0.249,0.439,0.403,0.372,0.205,0.174,-,CALM,No
2016/08/02,19:10,0.427,0.252,0.437,0.400,0.369,0.206,0.177,-,CALM,No
2016/08/02,19:20,0.427,0.252,0.438,0.399,0.374,0.205,0.177,north,1.3,No
2016/08/02,19:30,0.425,0.251,0.445,0.399,0.373,0.205,0.176,northwest,1.3,No
2016/08/02,19:40,0.423,0.251,0.440,0.402,0.370,0.206,0.175,west-northwest,1.3,Yes
2016/08/02,19:50,0.429,0.253,0.437,0.400,0.369,0.207,0.176,west,0.7,No
2016/08/02,20:00,0.422,0.248,0.438,0.390,0.368,0.203,0.170,north-northwest,2.2,Yes
2016/08/02,20:10,0.404,0.239,0.426,0.383,0.361,0.197,0.167,east-southeast,2.9,Yes
2016/08/02,20:20,0.404,0.241,0.422,0.384,0.361,0.198,0.167,south-southwest,2.0,Yes
2016/08/02,20:30,0.412,0.243,0.421,0.385,0.363,0.197,0.169,south-southwest,2.9,Yes
2016/08/02,20:40,0.412,0.242,0.429,0.389,0.368,0.198,0.169,south-southwest,2.6,No
2016/08/02,20:50,0.408,0.240,0.428,0.393,0.365,0.198,0.169,south-southwest,3.1,No
2016/08/02,21:00,0.410,0.245,0.427,0.391,0.363,0.199,0.171,southwest,3.9,No
2016/08/02,21:10,0.413,0.244,0.430,0.389,0.369,0.201,0.171,southwest,5.0,No
2016/08/02,21:20,0.412,0.242,0.431,0.393,0.366,0.198,0.169,south-southwest,3.6,No
2016/08/02,21:30,0.408,0.243,0.429,0.395,0.365,0.200,0.171,south-southwest,3.2,No
2016/08/02,21:40,0.416,0.243,0.427,0.390,0.366,0.199,0.172,south-southwest,2.5,No
2016/08/02,21:50,0.415,0.243,0.433,0.391,0.371,0.199,0.170,south,1.9,No
2016/08/02,22:00,0.411,0.244,0.429,0.396,0.367,0.200,0.170,south,1.9,No
2016/08/02,22:10,0.412,0.244,0.426,0.393,0.365,0.200,0.171,south,3.0,No
2016/08/02,22:20,0.415,0.242,0.430,0.389,0.370,0.200,0.171,south,2.7,No
2016/08/02,22:30,0.411,0.244,0.431,0.394,0.366,0.199,0.170,south,2.5,No
2016/08/02,22:40,0.410,0.245,0.429,0.396,0.365,0.199,0.172,south,2.8,No
2016/08/02,22:50,0.416,0.243,0.428,0.391,0.368,0.198,0.170,south,3.3,No
2016/08/02,23:00,0.415,0.244,0.432,0.393,0.371,0.199,0.170,south,2.6,No
2016/08/02,23:10,0.410,0.245,0.432,0.394,0.366,0.200,0.171,south,2.7,No
2016/08/02,23:20,0.414,0.244,0.428,0.390,0.368,0.200,0.169,south,2.8,No
2016/08/02,23:30,0.414,0.245,0.431,0.390,0.370,0.201,0.170,south-southwest,2.8,No
2016/08/02,23:40,0.411,0.245,0.433,0.396,0.367,0.201,0.171,south,3.1,No
2016/08/02,23:50,0.413,0.244,0.429,0.392,0.367,0.200,0.171,south,3.4,No
